Location: Plainartige
(45.6866°N, 1.7993°E)
Time: 16:12:14
(UTC+00:00)

Tiros 1 - Pass Details

Date: 03 June 2022
Orbit: 629 x 663 km, 48.4° (Epoch: 05 July)

Event Time Altitude Azimuth Distance (km) Brightness Sun altitude
Rises 23:34:30 0° 269° (W) 2,912 10.6 -21.8°
Reaches altitude 10° 23:36:51 10° 273° (W) 2,006 9.7 -21.8°
Maximum altitude 23:41:25 63° 354° (N) 705 7.5 -21.9°
Drops below altitude 10° 23:46:01 10° 76° (ENE) 2,017 9.8 -21.9°
Sets 23:48:23 0° 80° (E) 2,930 10.6 -21.9°
